College Station, TX

10:42 PM CST on December 10, 2017 (GMT -0600)
Easterwood

Weather History for KCLL - March, 2014

Change the Weather History Date:

Saturday, March 22, 2014

  Actual Average Record
Temperature  
Mean Temperature 71 °F 63 °F  
Max Temperature 81 °F 73 °F 94 °F (1971)
Min Temperature 60 °F 52 °F 27 °F (1915)
Degree Days  
Heating Degree Days 0 4  
Month to date heating degree days 235 139  
Since 1 July heating degree days 1959 1526  
Cooling Degree Days 6 2  
Month to date cooling degree days 13 35  
Year to date cooling degree days 34 63  
Growing Degree Days 22 (Base 50)    
Moisture  
Dew Point 64 °F    
Average Humidity 79    
Maximum Humidity 100    
Minimum Humidity 58    
Precipitation  
Precipitation 0.00 in 0.11 in 2.28 in (1912)
Month to date precipitation 1.55 2.24  
Year to date precipitation 3.73 8.33  
Sea Level Pressure  
Sea Level Pressure 29.96 in    
Wind  
Wind Speed 8 mph (SSE)    
Max Wind Speed 16 mph    
Max Gust Speed 20 mph    
Visibility 8 miles    
Events      
T = Trace of Precipitation, MM = Missing Value Source: NWS Daily Summary

Daily Weather History Graph

Daily Weather History Graph

Search for Another Location

Airport or City:

Trip Planner

Search our weather history database for the weather conditions in past years. The results will help you decide how hot, cold, wet, or windy it might be!

Date:

Astronomy

Mar. 22, 2014 Rise Set
Actual Time 7:26 AM CDT 7:38 PM CDT
Civil Twilight 7:02 AM CDT 8:02 PM CDT
Nautical Twilight 6:34 AM CDT 8:30 PM CDT
Astronomical Twilight 6:06 AM CDT 8:58 PM CDT
Moon 12:39 AM CDT (3/22) 11:30 AM CDT (3/22)
Length of Visible Light 12h 59m
Length of Day
12h 11m
Waning Gibbous, 65% of the Moon is Illuminated
Mar 22
Waning Gibbous
Mar 23
Last Quarter
Mar 30
New
Apr 7
First Quarter
Apr 15
Full

Hourly Weather History & Observations

Time (CDT) Temp. Heat Index Dew Point Humidity Pressure Visibility Wind Dir Wind Speed Gust Speed Precip Events Conditions
12:22 AM 64.0 °F - 60.1 °F 87% 29.95 in 10.0 mi SSE 9.2 mph - N/A   Mostly Cloudy
12:53 AM 64.9 °F - 61.0 °F 87% 29.94 in 10.0 mi SE 9.2 mph - N/A   Overcast
1:53 AM 64.9 °F - 61.0 °F 87% 29.93 in 10.0 mi SSE 9.2 mph - N/A   Overcast
2:07 AM 64.9 °F - 62.1 °F 90% 29.94 in 10.0 mi SSE 11.5 mph - N/A   Overcast
2:53 AM 66.0 °F - 62.1 °F 87% 29.92 in 10.0 mi SSE 6.9 mph - N/A   Overcast
3:18 AM 66.0 °F - 63.0 °F 90% 29.92 in 10.0 mi SSE 4.6 mph - N/A   Overcast
3:53 AM 66.0 °F - 63.0 °F 90% 29.91 in 9.0 mi SSE 5.8 mph - N/A   Overcast
4:53 AM 66.0 °F - 63.0 °F 90% 29.91 in 8.0 mi SSE 4.6 mph - N/A   Overcast
5:53 AM 64.9 °F - 64.0 °F 97% 29.92 in 6.0 mi SE 6.9 mph - N/A   Overcast
6:50 AM 64.4 °F - 64.4 °F 100% 29.94 in 2.5 mi SE 4.6 mph - N/A   Overcast
6:53 AM 64.9 °F - 64.0 °F 97% 29.93 in 2.5 mi SE 5.8 mph - N/A   Overcast
7:01 AM 64.9 °F - 64.0 °F 97% 29.94 in 3.0 mi SE 5.8 mph - N/A   Overcast
7:53 AM 64.9 °F - 64.9 °F 100% 29.96 in 4.0 mi Calm Calm - N/A   Overcast
8:53 AM 66.0 °F - 64.9 °F 96% 29.98 in 5.0 mi ESE 4.6 mph - N/A   Overcast
9:00 AM 66.0 °F - 64.9 °F 96% 29.99 in 5.0 mi Calm Calm - N/A   Overcast
9:53 AM 66.9 °F - 66.0 °F 97% 30.00 in 6.0 mi SE 3.5 mph - N/A   Overcast
10:50 AM 69.8 °F - 66.2 °F 88% 30.01 in 9.0 mi ESE 5.8 mph - N/A   Overcast
10:53 AM 70.0 °F - 66.0 °F 87% 30.00 in 9.0 mi SE 4.6 mph - N/A   Mostly Cloudy
11:03 AM 71.1 °F - 66.0 °F 84% 30.01 in 9.0 mi ESE 3.5 mph - N/A   Mostly Cloudy
11:16 AM 72.0 °F - 66.0 °F 81% 30.01 in 10.0 mi SSE 6.9 mph - N/A   Mostly Cloudy
11:33 AM 72.0 °F - 66.0 °F 81% 30.01 in 10.0 mi SE 4.6 mph - N/A   Mostly Cloudy
11:41 AM 73.0 °F - 66.0 °F 79% 30.02 in 10.0 mi Variable 4.6 mph - N/A   Mostly Cloudy
11:53 AM 73.9 °F - 66.0 °F 76% 30.00 in 10.0 mi SSE 8.1 mph - N/A   Mostly Cloudy
12:27 PM 73.9 °F - 66.0 °F 76% 30.00 in 10.0 mi SSW 5.8 mph - N/A   Overcast
12:37 PM 73.9 °F - 64.9 °F 73% 30.00 in 10.0 mi Variable 4.6 mph - N/A   Overcast
12:53 PM 75.0 °F - 66.0 °F 73% 29.97 in 10.0 mi Variable 3.5 mph - N/A   Scattered Clouds
1:53 PM 78.1 °F - 64.9 °F 64% 29.95 in 10.0 mi SE 8.1 mph - N/A   Mostly Cloudy
2:53 PM 79.0 °F - 64.0 °F 60% 29.93 in 10.0 mi South 9.2 mph 19.6 mph N/A   Mostly Cloudy
3:53 PM 80.1 °F 81.7 °F 64.0 °F 58% 29.88 in 10.0 mi SE 11.5 mph - N/A   Mostly Cloudy
4:53 PM 80.1 °F 81.9 °F 64.9 °F 60% 29.91 in 10.0 mi South 10.4 mph - N/A   Mostly Cloudy
5:53 PM 80.1 °F 81.9 °F 64.9 °F 60% 29.89 in 10.0 mi SSE 10.4 mph - N/A   Mostly Cloudy
6:53 PM 79.0 °F - 64.9 °F 62% 29.89 in 10.0 mi South 9.2 mph - N/A   Mostly Cloudy
7:53 PM 77.0 °F - 64.9 °F 66% 29.93 in 10.0 mi South 3.5 mph - N/A   Scattered Clouds
8:53 PM 75.9 °F - 66.0 °F 71% 29.94 in 10.0 mi WSW 6.9 mph - N/A   Mostly Cloudy
9:53 PM 71.1 °F - 64.0 °F 78% 29.96 in 10.0 mi West 8.1 mph - N/A   Overcast
10:53 PM 64.9 °F - 61.0 °F 87% 29.99 in 8.0 mi NW 11.5 mph - N/A   Scattered Clouds
11:30 PM 64.9 °F - 61.0 °F 87% 30.02 in 8.0 mi NW 10.4 mph - N/A   Overcast
11:38 PM 64.9 °F - 61.0 °F 87% 30.02 in 7.0 mi NNW 10.4 mph - N/A   Overcast
11:53 PM 64.0 °F - 61.0 °F 90% 30.01 in 6.0 mi NNW 11.5 mph - N/A   Overcast